Location: Blanot
(47.1713°N, 4.2340°E)
Time: 04:44:37
(UTC+00:00)

Meteor 1-23 Rocket - Pass Details

Date: 14 July 2020
Orbit: 838 x 887 km, 81.3° (Epoch: 06 August)

Event Time Altitude Azimuth Distance (km) Brightness Sun altitude
Rises 02:25:12 0° 347° (NNW) 3,461 8.0 -12.7°
Reaches altitude 10° 02:27:38 10° 346° (NNW) 2,526 7.2 -12.5°
Maximum altitude 02:33:23 78° 262° (W) 900 4.3 -11.9°
Drops below altitude 10° 02:39:09 10° 176° (S) 2,535 6.3 -11.3°
Enters shadow 02:40:44 - 176° (S) 3,144 6.7 -11.1°
